This is the latest recevied weather packets stored in our database for station/object PE1BMM-13. If no packets are shown the sender has not sent any weather packets the latest 1 day(s).
| Time | Temp. | Humidity | Pressure | Rain* | Wind** | Luminosity | Snow |
|---|---|---|---|---|---|---|---|
| 1836274515 | 16.67° C | 90% | 1013.4 hPa | 0 mm | 1.34 m/s, 265° | - | - |
| 1836274378 | 16.67° C | 90% | 1013.2 hPa | 0 mm | 0.89 m/s, 256° | - | - |
| 1836274280 | 16.67° C | 90% | 1013.5 hPa | 0 mm | 1.34 m/s, 253° | - | - |
| 1836274136 | 16.67° C | 90% | 1013.3 hPa | 0 mm | 0.89 m/s, 259° | - | - |
| 1836273903 | 16.67° C | 90% | 1013.4 hPa | 0 mm | 0.89 m/s, 258° | - | - |
| 1778042936 | 10.56° C | 85% | 1009.5 hPa | 0 mm | 0.89 m/s, 349° | - | - |
| 1778042634 | 10.56° C | 84% | 1009.6 hPa | 0 mm | 0.89 m/s, 18° | - | - |
| 1778042339 | 10.56° C | 84% | 1009.5 hPa | 0 mm | 0.89 m/s, 52° | - | - |
| 1778042034 | 10.56° C | 84% | 1009.6 hPa | 0 mm | 0.89 m/s, 159° | - | - |
| 1778041735 | 10° C | 84% | 1009.5 hPa | 0 mm | 0.89 m/s, 98° | - | - |
| 1778041435 | 10° C | 84% | 1009.6 hPa | 0 mm | 0.89 m/s, 112° | - | - |
| 1778041137 | 10° C | 84% | 1009.4 hPa | 0 mm | 0.89 m/s, 14° | - | - |
| 1778040834 | 10° C | 84% | 1009.5 hPa | 0 mm | 0.89 m/s, 66° | - | - |
| 1778040536 | 10° C | 85% | 1009.5 hPa | 0 mm | 0.89 m/s, 356° | - | - |
| 1778040235 | 10° C | 85% | 1009.5 hPa | 0 mm | 0.89 m/s, 12° | - | - |
| 1778039935 | 10.56° C | 85% | 1009.6 hPa | 0 mm | 0.89 m/s, 68° | - | - |
| 1778039636 | 10.56° C | 85% | 1009.5 hPa | 0 mm | 0.89 m/s, 23° | - | - |
| 1778039335 | 10.56° C | 85% | 1009.5 hPa | 0 mm | 0.89 m/s, 359° | - | - |
| 1778039022 | 10.56° C | 85% | 1009.6 hPa | 0 mm | 0.89 m/s, 112° | - | - |
| 1778038718 | 10.56° C | 85% | 1009.5 hPa | 0 mm | 0.89 m/s, 80° | - | - |
| 1778038414 | 10.56° C | 85% | 1009.6 hPa | 0 mm | 0.89 m/s, 21° | - | - |
| 1778038105 | 10.56° C | 85% | 1009.6 hPa | 0 mm | 1.34 m/s, 112° | - | - |
| 1778037799 | 10.56° C | 86% | 1009.7 hPa | 0 mm | 1.34 m/s, 133° | - | - |
| 1778037493 | 10.56° C | 86% | 1009.7 hPa | 0 mm | 1.34 m/s, 9° | - | - |
| 1778037187 | 10° C | 86% | 1009.8 hPa | 0 mm | 0.89 m/s, 52° | - | - |
* Rain latest hour (hover to see other rain measurements)
** Current wind speed in m/s (hover to see current wind gust speed)